sat.trackr.live / text

‹ back to catalog

GAOFEN-6

NORAD 43484 · 2018-048A

PAYLOAD ACTIVE UNKNOWN

§ Identity

Operator
Country
PRC
Launch date
2018-06-02
Launch site
JSC
Launch vehicle
Mass (kg)
RCS (m²)

Purposes: earth_obs

External: N2YO · Heavens-Above · Gunter

§ Orbital elements

Epoch: 2026-09-20T05:21:47.697408Z

Period
97.53 min
Inclination
98.0875°
Eccentricity
0.0009627
Mean motion
14.76445283 rev/d
Perigee alt
633.8 km
Apogee alt
647.3 km
Semi-major
7,018.7 km
B*
9.6139e-5
RAAN
326.0519°
Arg perigee
220.1968°
Mean anomaly
139.8531°
Rev number
44,741

§ Raw data

GAOFEN-61 43484U 18048A   26263.22346872  .00000617  00000+0  96139-4 0  99922 43484  98.0875 326.0519 0009627 220.1968 139.8531 14.76445283447414

JSON: /api/v1/satellites/43484 · /tle

For live sub-satellite position, see the globe view (requires WebGL).

§ Visibility from observer

Set your observer location to see the next 7 days of passes ≥ 10°. The values pass through the URL so the page stays shareable.

No JS? Fill the form by hand. The geolocation button needs JavaScript.

§ Radio — SatNOGS DB

ModeDescriptionDownlinkUplink
FM S-band telemetry 2.205 GHz

1 transmitter · refreshed weekly from db.satnogs.org